• în România
  • Lista ţărilor
  • Pe 7 zile
  • Temperatura apei
  • Hartă satelitară
  • Meteo pe hartă
  • Widget-uri
  • user-avatar
    Intrare

    Meteo pe oră la Namyur

    Astăzi, 22 Februarie, Joi

    Timp Temperatura Precipitaţii Vânt Presiune Umiditate
    00:00 -4°C° 0 mm 3 m/s 756 mmHg 84%
    01:00 -4°C° 0 mm 3 m/s 755 mmHg 84%
    02:00 -4°C° 0 mm 3 m/s 755 mmHg 84%
    03:00 -4°C° 0 mm 3 m/s 755 mmHg 85%
    04:00 -4°C° 0 mm 4 m/s 755 mmHg 83%
    05:00 -4°C° 0 mm 4 m/s 755 mmHg 82%
    06:00 -4°C° 0 mm 4 m/s 755 mmHg 80%
    07:00 -3°C° 0 mm 4 m/s 755 mmHg 72%
    08:00 -2°C° 0 mm 5 m/s 755 mmHg 64%
    09:00 -2°C° 0 mm 6 m/s 755 mmHg 57%
    10:00 -1°C° 0 mm 6 m/s 755 mmHg 52%
    11:00 +1°C° 0 mm 6 m/s 755 mmHg 48%
    12:00 +2°C° 0 mm 6 m/s 755 mmHg 43%
    13:00 +2°C° 0 mm 6 m/s 755 mmHg 45%
    14:00 +2°C° 0 mm 6 m/s 754 mmHg 46%
    15:00 +2°C° 0 mm 6 m/s 754 mmHg 47%
    16:00 +1°C° 0 mm 5 m/s 754 mmHg 53%
    17:00 -1°C° 0 mm 5 m/s 754 mmHg 58%
    18:00 -2°C° 0 mm 4 m/s 754 mmHg 64%
    19:00 -3°C° 0 mm 4 m/s 754 mmHg 65%
    20:00 -3°C° 0 mm 4 m/s 755 mmHg 66%
    21:00 -3°C° 0 mm 4 m/s 755 mmHg 68%
    22:00 -4°C° 0 mm 4 m/s 755 mmHg 68%
    23:00 -4°C° 0 mm 4 m/s 755 mmHg 69%

    Mâine, 23 Februarie, Vineri

    Timp Temperatura Precipitaţii Vânt Presiune Umiditate
    00:00 -4°C° 0 mm 4 m/s 755 mmHg 70%
    01:00 -4°C° 0 mm 4 m/s 755 mmHg 69%
    02:00 -5°C° 0 mm 4 m/s 754 mmHg 69%
    03:00 -5°C° 0 mm 4 m/s 754 mmHg 69%
    04:00 -5°C° 0 mm 4 m/s 754 mmHg 67%
    05:00 -5°C° 0 mm 4 m/s 754 mmHg 66%
    06:00 -5°C° 0 mm 4 m/s 754 mmHg 65%
    07:00 -5°C° 0 mm 5 m/s 754 mmHg 60%
    08:00 -4°C° 0 mm 6 m/s 754 mmHg 54%
    09:00 -3°C° 0 mm 6 m/s 754 mmHg 49%
    10:00 -2°C° 0 mm 6 m/s 754 mmHg 45%
    11:00 -1°C° 0 mm 6 m/s 754 mmHg 41%
    12:00 +1°C° 0 mm 6 m/s 753 mmHg 37%
    13:00 +1°C° 0 mm 6 m/s 753 mmHg 37%
    14:00 +1°C° 0 mm 6 m/s 753 mmHg 37%
    15:00 +1°C° 0 mm 6 m/s 752 mmHg 37%
    16:00 0°C° 0 mm 5 m/s 752 mmHg 40%
    17:00 -1°C° 0 mm 5 m/s 753 mmHg 43%
    18:00 -4°C° 0 mm 5 m/s 753 mmHg 46%
    19:00 -3°C° 0 mm 4 m/s 753 mmHg 46%
    20:00 -3°C° 0 mm 4 m/s 753 mmHg 45%
    21:00 -4°C° 0 mm 4 m/s 753 mmHg 45%
    22:00 -4°C° 0 mm 4 m/s 753 mmHg 46%
    23:00 -4°C° 0 mm 4 m/s 753 mmHg 47%

    Poimâine, 24 Februarie, Sâmbătă

    Timp Temperatura Precipitaţii Vânt Presiune Umiditate
    00:00 -4°C° 0 mm 4 m/s 753 mmHg 48%
    01:00 -4°C° 0 mm 4 m/s 753 mmHg 49%
    02:00 -5°C° 0 mm 5 m/s 753 mmHg 50%
    03:00 -5°C° 0 mm 5 m/s 753 mmHg 51%
    04:00 -5°C° 0 mm 5 m/s 753 mmHg 51%
    05:00 -5°C° 0 mm 5 m/s 753 mmHg 50%
    06:00 -5°C° 0 mm 5 m/s 753 mmHg 50%
    07:00 -5°C° 0 mm 5 m/s 753 mmHg 46%
    08:00 -4°C° 0 mm 6 m/s 753 mmHg 42%
    09:00 -3°C° 0 mm 6 m/s 753 mmHg 38%
    10:00 -1°C° 0 mm 6 m/s 753 mmHg 35%
    11:00 0°C° 0 mm 7 m/s 753 mmHg 33%
    12:00 +2°C° 0 mm 7 m/s 753 mmHg 30%
    13:00 +3°C° 0 mm 7 m/s 753 mmHg 31%
    14:00 +3°C° 0 mm 7 m/s 753 mmHg 31%
    15:00 +3°C° 0 mm 7 m/s 753 mmHg 31%
    16:00 +1°C° 0 mm 6 m/s 753 mmHg 37%
    17:00 -1°C° 0 mm 6 m/s 753 mmHg 42%
    18:00 -1°C° 0 mm 5 m/s 754 mmHg 47%
    19:00 -2°C° 0 mm 5 m/s 754 mmHg 49%
    20:00 -4°C° 0 mm 5 m/s 754 mmHg 51%
    21:00 -4°C° 0 mm 5 m/s 755 mmHg 52%
    22:00 -5°C° 0 mm 5 m/s 755 mmHg 51%
    23:00 -5°C° 0 mm 5 m/s 755 mmHg 50%

    25 Februarie, Duminică

    Timp Temperatura Precipitaţii Vânt Presiune Umiditate
    00:00 -5°C° 0 mm 5 m/s 755 mmHg 50%
    01:00 -6°C° 0 mm 5 m/s 755 mmHg 49%
    02:00 -6°C° 0 mm 5 m/s 755 mmHg 49%
    03:00 -6°C° 0 mm 5 m/s 755 mmHg 48%
    04:00 -6°C° 0 mm 5 m/s 756 mmHg 48%
    05:00 -6°C° 0 mm 5 m/s 756 mmHg 48%
    06:00 -8°C° 0 mm 6 m/s 756 mmHg 48%
    07:00 -6°C° 0 mm 6 m/s 756 mmHg 44%
    08:00 -5°C° 0 mm 6 m/s 756 mmHg 41%
    09:00 -6°C° 0 mm 7 m/s 757 mmHg 37%
    10:00 -4°C° 0 mm 7 m/s 757 mmHg 34%
    11:00 -3°C° 0 mm 7 m/s 757 mmHg 30%
    12:00 -2°C° 0 mm 7 m/s 756 mmHg 26%
    13:00 -2°C° 0 mm 7 m/s 756 mmHg 25%
    14:00 -2°C° 0 mm 7 m/s 756 mmHg 23%
    15:00 -2°C° 0 mm 7 m/s 756 mmHg 22%
    16:00 -3°C° 0 mm 6 m/s 756 mmHg 25%
    17:00 -4°C° 0 mm 6 m/s 757 mmHg 29%
    18:00 -6°C° 0 mm 5 m/s 757 mmHg 32%
    19:00 -6°C° 0 mm 5 m/s 757 mmHg 35%
    20:00 -6°C° 0 mm 5 m/s 758 mmHg 37%
    21:00 -7°C° 0 mm 5 m/s 758 mmHg 40%
    22:00 -7°C° 0 mm 5 m/s 758 mmHg 42%
    23:00 -7°C° 0 mm 5 m/s 758 mmHg 44%

    26 Februarie, Luni

    Timp Temperatura Precipitaţii Vânt Presiune Umiditate
    00:00 -8°C° 0 mm 5 m/s 758 mmHg 46%
    01:00 -8°C° 0 mm 5 m/s 758 mmHg 47%
    02:00 -8°C° 0 mm 5 m/s 758 mmHg 47%
    03:00 -8°C° 0 mm 5 m/s 757 mmHg 47%
    04:00 -8°C° 0 mm 5 m/s 757 mmHg 47%
    05:00 -8°C° 0 mm 5 m/s 758 mmHg 47%
    06:00 -10°C° 0 mm 5 m/s 758 mmHg 46%
    07:00 -9°C° 0 mm 6 m/s 758 mmHg 44%
    08:00 -9°C° 0 mm 6 m/s 757 mmHg 41%
    09:00 -8°C° 0 mm 7 m/s 757 mmHg 39%
    10:00 -7°C° 0 mm 7 m/s 757 mmHg 36%
    11:00 -7°C° 0 mm 7 m/s 757 mmHg 34%
    12:00 -6°C° 0 mm 7 m/s 756 mmHg 31%
    13:00 -6°C° 0 mm 7 m/s 756 mmHg 31%
    14:00 -6°C° 0 mm 7 m/s 756 mmHg 31%
    15:00 -6°C° 0 mm 7 m/s 755 mmHg 30%
    16:00 -6°C° 0 mm 6 m/s 755 mmHg 33%
    17:00 -7°C° 0 mm 5 m/s 755 mmHg 36%
    18:00 -8°C° 0 mm 4 m/s 755 mmHg 39%
    19:00 -8°C° 0 mm 4 m/s 755 mmHg 39%
    20:00 -8°C° 0 mm 4 m/s 755 mmHg 39%
    21:00 -8°C° 0 mm 4 m/s 755 mmHg 39%
    22:00 -9°C° 0 mm 4 m/s 755 mmHg 39%
    23:00 -8°C° 0 mm 3 m/s 755 mmHg 40%

    27 Februarie, Marţi

    Timp Temperatura Precipitaţii Vânt Presiune Umiditate
    00:00 -8°C° 0 mm 3 m/s 754 mmHg 40%
    01:00 -8°C° 0 mm 3 m/s 754 mmHg 41%
    02:00 -9°C° 0 mm 3 m/s 754 mmHg 42%
    03:00 -9°C° 0 mm 3 m/s 754 mmHg 43%
    04:00 -9°C° 0 mm 3 m/s 753 mmHg 44%
    05:00 -9°C° 0 mm 3 m/s 753 mmHg 45%
    06:00 -10°C° 0 mm 3 m/s 753 mmHg 45%
    07:00 -9°C° 0 mm 3 m/s 753 mmHg 42%
    08:00 -9°C° 0 mm 4 m/s 753 mmHg 38%
    09:00 -8°C° 0 mm 4 m/s 753 mmHg 34%
    10:00 -7°C° 0 mm 4 m/s 753 mmHg 30%
    11:00 -5°C° 0 mm 4 m/s 753 mmHg 27%
    12:00 -4°C° 0 mm 4 m/s 753 mmHg 24%
    13:00 -4°C° 0 mm 4 m/s 753 mmHg 24%
    14:00 -4°C° 0 mm 4 m/s 752 mmHg 24%
    15:00 -4°C° 0 mm 4 m/s 752 mmHg 24%
    16:00 -5°C° 0 mm 4 m/s 752 mmHg 28%
    17:00 -6°C° 0 mm 3 m/s 753 mmHg 32%
    18:00 -6°C° 0 mm 2 m/s 753 mmHg 36%
    19:00 -6°C° 0 mm 2 m/s 753 mmHg 38%
    20:00 -6°C° 0 mm 2 m/s 753 mmHg 41%
    21:00 -6°C° 0 mm 2 m/s 754 mmHg 44%
    22:00 -7°C° 0 mm 2 m/s 754 mmHg 45%
    23:00 -7°C° 0 mm 2 m/s 754 mmHg 47%
    Arată mai mult